Regional Weather Roundup
Issued by NWS State College, PA

Home | Current Version | Previous Version | Text Only | Print | Product List | Glossary On
Versions: 1 2 3 4 5 6 7 8 9 10 11 12 13 14 15 16 17 18 19 20 21 22 23 24 25 26 27 28 29 30 31 32 33 34 35 36 37 38 39 40 41 42 43 44 45 46 47 48 49 50
000
ASUS41 KCTP 292010
RWRCTP

REGIONAL WEATHER ROUNDUP
NATIONAL WEATHER SERVICE STATE COLLEGE PA
400 PM EDT SUN MAY 29 2016

Note: "fair" indicates few or no clouds below 12,000 feet with no
significant weather and/or obstructions to visibility.

* = STATION THAT DOES NOT REPORT PRECIPITATION /E.G. RAIN...SNOW...ETC/
    THUNDER OR FOG.

PAZ002>004-007>009-013>016-020>023-029>032-292100-
WESTERN PENNSYLVANIA

CITY           SKY/WX    TMP DP  RH WIND       PRES   REMARKS
ERIE           CLOUDY    79  66  64 W5        30.04F
MEADVILLE      CLOUDY    76  67  73 S7        30.08F
FRANKLIN*      CLOUDY    79  64  61 S8        30.11F
NEW CASTLE     MOCLDY    77  69  76 SW7       30.09F
BEAVER COUNTY  NOT AVBL
BUTLER*        CLOUDY    73  57  56 E8        30.11F
PITTSBURGH INT CLOUDY    75  58  55 SE5       30.08F
PITTSBURGH     CLOUDY    70  61  73 NE7       30.09F
INDIANA*       CLOUDY    66  63  88 S9        30.18R HAZE
LATROBE        LGT RAIN  66  66 100 SE8       30.14S
WASHINGTON CO* CLOUDY    79  68  69 SW7       30.10F
$$

PAZ004>006-010>012-017>019-024>028-033>037-041-042-045-046-049>053-292100-
CENTRAL PENNSYLVANIA

CITY           SKY/WX    TMP DP  RH WIND       PRES   REMARKS
BRADFORD       MOSUNNY   77  63  61 SW6       30.11F
DUBOIS         CLOUDY    75  67  76 W7        30.10F
CLEARFIELD     TSTM      69  63  81 VRB3      30.08F
JOHNSTOWN      LGT RAIN  66  58  75 W9        30.16R
ALTOONA        PTSUNNY   79  61  53 S10       30.11F
STATE COLLEGE  SUNNY     81  55  41 S8        30.08F
WILLIAMSPORT   MOSUNNY   87  60  40 CALM      30.03F
SELINSGROVE    MOSUNNY   86  57  37 S7        30.06F
FT INDIANTOWN  MOSUNNY   85  63  47 VRB6      30.06F
CAPITAL CITY   PTSUNNY   88  58  36 SE10      30.05F
HARRISBURG     PTSUNNY   88  57  34 VRB3      30.05F
YORK           CLOUDY    84  62  47 SW8       30.07F
$$

PAZ038>040-043-044-047-048-054-055-060>062-067>071-292100-
EASTERN PENNSYLVANIA

CITY           SKY/WX    TMP DP  RH WIND       PRES   REMARKS
SCRANTON       CLOUDY    85  60  42 S10       30.05F
MOUNT POCONO   PTSUNNY   79  59  50 S9        30.13F
ALLENTOWN      SUNNY     88  57  34 S6G16     30.06F
QUAKERTOWN*    CLEAR     86  55  35 SW8       30.09F
READING        SUNNY     88  56  33 S14       30.05F
LANCASTER      MOSUNNY   86  59  39 S12       30.07F
COATESVILLE    CLOUDY    82  63  51 VRB5      30.10F
POTTSTOWN      SUNNY     85  52  32 VRB7      30.09F
BLUE BELL      SUNNY     84  59  42 S9        30.07F
DOYLESTOWN     SUNNY     84  53  34 S8        30.07F
WILLOW GROVE   NOT AVBL
NORTH PHILA    SUNNY     88  62  41 SW8       30.08F
PHILADELPHIA   PTSUNNY   86  63  45 S12       30.07F
$$




USA.gov is the U.S. government's official web portal to all federal, state and local government web resources and services.